Regional Weather Roundup
Issued by NWS

Home | Current Version | Previous Version | Graphics & Text | Print | Product List | Glossary On
Versions: 1 2 3 4 5 6 7 8 9 10 11 12 13 14 15 16 17 18 19 20 21 22 23 24 25 26 27 28 29 30 31 32 33 34 35 36 37 38 39 40 41 42 43 44 45 46 47 48 49
000
ASUS45 KBOU 241907
RWRCO

WEATHER ROUNDUP FOR COLORADO
NATIONAL WEATHER SERVICE DENVER/BOULDER CO
100 PM MDT THU JUL 24 2014

NOTE: "FAIR" INDICATES FEW OR NO CLOUDS BELOW 12000 FEET WITH NO
SIGNIFICANT WEATHER AND/OR OBSTRUCTIONS TO VISIBILITY.

COZ001>005-013-030-031-242000-
...NORTHWEST COLORADO...

CITY           SKY/WX    TMP DP  RH WIND       PRES   REMARKS
CRAIG          TSTM      66  57  72 SW35G49   30.28S
HAYDEN         CLOUDY    75  48  38 NE8       30.30F
MEEKER         CLOUDY    80  49  33 S15       30.29F
MOUNT WERNER   NOT AVBL
STEAMBOAT SPGS CLOUDY    74  48  40 W13       30.34R
WALDEN         MOSUNNY   73  43  33 W17G26    30.39S
$$

COZ006>008-011-242000-
...WEST CENTRAL VALLEYS...

CITY           SKY/WX    TMP DP  RH WIND       PRES   REMARKS
GRAND JUNCTION PTSUNNY   87  49  26 E6        30.15F
MONTROSE       PTSUNNY   82  54  37 W12       30.26F
EAGLE          PTSUNNY   79  46  31 SW15      30.32F
RIFLE          CLOUDY    84  48  28 VRB3      30.22F
DELTA          PTSUNNY   90  50  24 S9        30.19F
NUCLA          PTSUNNY   88  45  22 SW14      30.29F
$$

COZ017>023-064>068-242000-
...SOUTHWEST COLORADO...

CITY           SKY/WX    TMP DP  RH WIND       PRES   REMARKS
DURANGO        MOSUNNY   81  48  31 VRB5      30.34F
CORTEZ         MOSUNNY   88  49  25 W8        30.26F
PAGOSA SPRINGS MOSUNNY   77  44  31 SW10      30.43F
TELLURIDE      PTSUNNY   75  41  29 SE6       30.50F
WOLF CREEK PAS NOT AVBL
$$

COZ009-010-012-014-032>034-037-058>063-242000-
...CENTRAL COLORADO...

CITY           SKY/WX    TMP DP  RH WIND       PRES   REMARKS
ASPEN          PTSUNNY   79  45  29 N9        30.39F
BUENA VISTA    MOSUNNY   83  38  20 NW13      30.36F
COPPER MTN     CLOUDY    61  39  44 W17       30.74F
BERTHOUD PASS  CLOUDY    52  37  58 NW15      30.76F
COTTONWOOD PAS MOSUNNY   79  34  19 W8        30.53F
GUNNISON       SUNNY     81  45  28 NW6       30.39F
KREMMLING      CLOUDY    81  37  21 SW10G18   30.35F
LEADVILLE      PTSUNNY   68  39  34 VRB7G17   30.55F
MONARCH PASS   MOSUNNY   63  39  42 SW17G28   30.83F
SALIDA         MOSUNNY  N/A N/A N/A SW14G21   30.38F
SUNLIGHT       CLOUDY    64  54  68 CALM      30.66F
WILKERSON PASS PTSUNNY   70  37  30 W8        30.67F
$$

COZ069>075-242000-
...SAN LUIS VALLEY/SANGRE DE CRISTO MOUNTAINS...

CITY           SKY/WX    TMP DP  RH WIND       PRES   REMARKS
ALAMOSA        SUNNY     82  44  26 S9        30.37F
LA VETA PASS   SUNNY     72  43  35 SW8G16    30.58S
SAGUACHE       SUNNY     79  46  31 S7        30.39F
$$

COZ035-036-038>040-242000-
...NORTHERN COLORADO FRONT RANGE...

CITY           SKY/WX    TMP DP  RH WIND       PRES   REMARKS
DENVER INTL AP MOSUNNY   95  42  16 W9        30.08F
DMNS CITY PARK   N/A     88  47  24 S8        30.08S
AURORA         PTSUNNY   89  50  26 E3        30.12F
FRONT RANGE AP NOT AVBL
ERIE MUNI ARPT PTSUNNY   95  40  14 E5        30.05F
BOULDER MUN AP PTSUNNY   97  43  15 N3        30.07F
CENTENNIAL     PTSUNNY   88  42  20 CALM      30.14F THUNDER
BROOMFIELD     PTSUNNY   93  39  15 NW9G18    30.11F
FORT COLLINS   MOSUNNY   97  55  24 N8        30.02F
LONGMONT       MOSUNNY  100  43  14 NW5       30.06F
$$

COZ041-046-047-076>085-087-088-242000-
...PIKES PEAK/PALMER DIVIDE AND SOUTHERN FOOTHILLS...

CITY           SKY/WX    TMP DP  RH WIND       PRES   REMARKS
COLO. SPRINGS  PTSUNNY   90  44  20 SE8       30.18F
A. F. ACADEMY  PTSUNNY   89  45  21 VRB7      30.19F
ELLICOTT       MOSUNNY   90  44  20 W12       30.17F
FALCON         MOSUNNY   89  49  25 SE9       30.25F
FORT CARSON    MOSUNNY   92  51  24 VRB2      30.14F
LIMON          SUNNY     94  46  19 S15G25    30.10F
MONUMENT HILL  MOSUNNY   86  37  17 NW3       30.24F
TRINIDAD       SUNNY     92  40  16 NE8       30.18F
$$

COZ042>045-048>051-090-091-242000-
...NORTHEAST COLORADO...

CITY           SKY/WX    TMP DP  RH WIND       PRES   REMARKS
GREELEY ARPT   SUNNY     97  52  21 S6        30.04F
AKRON          SUNNY     98  45  16 VRB7      30.02F
BURLINGTON     SUNNY     97  41  14 S25G36    30.04F
WRAY             N/A    105  41  11 SW18G26   29.95F
STERLING       NOT AVBL
HOLYOKE        SUNNY     99  59  26 S12       29.94F
FORT MORGAN    SUNNY    100  40  12 W8        30.01F
$$

COZ086-089-092>099-242000-
...SOUTHEAST COLORADO...

CITY           SKY/WX    TMP DP  RH WIND       PRES   REMARKS
PUEBLO         SUNNY     96  44  16 SW6       30.06F
LA JUNTA       SUNNY     97  47  18 S13G20    30.04F
LAMAR          SUNNY    100  42  13 SW15      30.00F
SPRINGFIELD      N/A     95  49  20 S18G28    30.09F
$$


USA.gov is the U.S. government's official web portal to all federal, state and local government web resources and services.